Weather History for Fargo, ND

Change the Weather History Date:

Monday, March 4, 2013

  Actual Average Record
Temperature  
Mean Temperature 27 °F 22 °F  
Max Temperature 29 °F 30 °F 55 °F (2000)
Min Temperature 25 °F 14 °F -27 °F (1917)
Degree Days  
Heating Degree Days 38 43  
Month to date heating degree days 181 176  
Since 1 July heating degree days 6772 6854  
Cooling Degree Days 0 0  
Month to date cooling degree days 0 0  
Year to date cooling degree days 0 0  
Moisture  
Dew Point 21 °F    
Average Humidity 69    
Maximum Humidity 88    
Minimum Humidity 50    
Precipitation  
Precipitation 0.31 in 0.04 in 0.54 in (1966)
Month to date precipitation 0.31 0.15  
Year to date precipitation 2.50 1.46  
Snow  
Snow 3.20 in 0.30 in 5.40 in (1966)
Month to date snowfall 3.2 1.4  
Since 1 July snowfall 40.3 39.4  
Snow Depth 13.00 in    
Sea Level Pressure  
Sea Level Pressure 29.87 in    
Wind  
Wind Speed 15 mph (SE)    
Max Wind Speed 23 mph    
Max Gust Speed 33 mph    
Visibility 3 miles    
Events Snow    
T = Trace of Precipitation, MM = Missing Value Source: NWS Daily Summary

Daily Weather History Graph

Daily Weather History Graph

Search for Another Location

Airport:

Trip Planner

Search our weather history database for the weather conditions in past years. The results will help you decide how hot, cold, wet, or windy it might be!

Date:

Astronomy

Mar. 04, 2013 Rise Set
Actual Time 7:00 AM CST 6:17 PM CST
Civil Twilight 6:30 AM CST 6:48 PM CST
Nautical Twilight 5:55 AM CST 7:23 PM CST
Astronomical Twilight 5:20 AM CST 7:58 PM CST
Moon 1:27 AM CST (3/4) 10:43 AM CST (3/4)
Length of Visible Light 12h 17m
Length of Day
11h 16m
Waning Gibbous, 52% of the Moon is Illuminated
Mar 4
Waning Gibbous
Mar 4
Last Quarter
Mar 11
New
Mar 19
First Quarter
Mar 27
Full

Hourly Weather History & Observations

Time (CST) Temp. Windchill Dew Point Humidity Pressure Visibility Wind Dir Wind Speed Gust Speed Precip Events Conditions
12:53 AM 27.0 °F 12.5 °F 16.0 °F 63% 29.86 in 3.0 mi SE 23.0 mph 32.2 mph 0.00 in Snow Light Snow
1:03 AM 26.6 °F 12.0 °F 17.6 °F 69% 29.82 in 2.5 mi SE 23.0 mph 33.4 mph 0.00 in Snow Light Snow
1:41 AM 26.6 °F 14.3 °F 19.4 °F 74% 29.83 in 3.0 mi SE 16.1 mph 21.9 mph 0.00 in Snow Light Snow
1:53 AM 27.0 °F 14.7 °F 19.0 °F 72% 29.87 in 4.0 mi ESE 16.1 mph 25.3 mph 0.00 in Snow Light Snow
2:05 AM 26.6 °F 15.2 °F 19.4 °F 74% 29.83 in 2.0 mi SE 13.8 mph 19.6 mph 0.00 in Snow Light Snow
2:12 AM 26.6 °F 15.2 °F 19.4 °F 74% 29.83 in 1.5 mi SE 13.8 mph - 0.00 in Snow Light Snow
2:32 AM 26.6 °F 13.8 °F 19.4 °F 74% 29.82 in 2.0 mi SE 17.3 mph 23.0 mph 0.01 in Snow Light Snow
2:40 AM 26.6 °F 15.2 °F 19.4 °F 74% 29.82 in 1.8 mi SE 13.8 mph - 0.01 in Snow Light Snow
2:49 AM 26.6 °F 14.3 °F 19.4 °F 74% 29.82 in 2.0 mi ESE 16.1 mph - N/A Snow Light Snow
2:53 AM 26.1 °F 14.5 °F 21.0 °F 81% 29.86 in 2.0 mi SE 13.8 mph 21.9 mph 0.01 in Snow Light Snow
3:32 AM 26.6 °F 13.8 °F 21.2 °F 80% 29.81 in 1.8 mi SE 17.3 mph 25.3 mph 0.00 in Snow Light Snow
3:53 AM 26.1 °F 12.3 °F 21.0 °F 81% 29.85 in 1.8 mi SE 19.6 mph 26.5 mph 0.01 in Snow Light Snow
4:09 AM 26.6 °F 14.7 °F 21.2 °F 80% 29.81 in 2.0 mi SE 15.0 mph 23.0 mph 0.00 in Snow Light Snow
4:13 AM 26.6 °F 15.2 °F 21.2 °F 80% 29.81 in 1.8 mi SE 13.8 mph 24.2 mph 0.00 in Snow Light Snow
4:28 AM 26.6 °F 14.7 °F 21.2 °F 80% 29.82 in 2.0 mi SE 15.0 mph 21.9 mph 0.00 in Snow Light Snow
4:35 AM 26.6 °F 15.2 °F 21.2 °F 80% 29.82 in 1.5 mi SE 13.8 mph 21.9 mph 0.01 in Snow Light Snow
4:53 AM 25.0 °F 13.1 °F 21.0 °F 85% 29.87 in 0.8 mi SE 13.8 mph - 0.02 in Snow Light Snow
5:12 AM 24.8 °F 13.4 °F 21.2 °F 86% 29.84 in 1.0 mi SE 12.7 mph - 0.01 in Snow Light Snow
5:14 AM 24.8 °F 12.9 °F 21.2 °F 86% 29.84 in 0.8 mi SE 13.8 mph - 0.01 in Snow Light Snow
5:44 AM 24.8 °F 12.9 °F 21.2 °F 86% 29.83 in 1.2 mi ESE 13.8 mph - 0.02 in Snow Light Snow
5:53 AM 25.0 °F 13.1 °F 21.0 °F 85% 29.87 in 1.2 mi ESE 13.8 mph - 0.03 in Snow Light Snow
6:34 AM 24.8 °F 12.4 °F 21.2 °F 86% 29.83 in 3.0 mi SE 15.0 mph - 0.00 in Snow Light Snow
6:53 AM 25.0 °F 12.2 °F 21.0 °F 85% 29.87 in 2.5 mi SE 16.1 mph - 0.01 in Snow Light Snow
7:05 AM 24.8 °F 12.4 °F 21.2 °F 86% 29.82 in 1.5 mi SE 15.0 mph - 0.00 in Snow Light Snow
7:19 AM 26.6 °F 14.3 °F 21.2 °F 80% 29.83 in 0.8 mi SE 16.1 mph 24.2 mph 0.00 in Snow Light Snow
7:42 AM 26.6 °F 14.3 °F 21.2 °F 80% 29.83 in 1.5 mi SE 16.1 mph - 0.01 in Snow Light Snow
7:53 AM 26.1 °F 14.0 °F 21.0 °F 81% 29.87 in 1.2 mi SE 15.0 mph - 0.01 in Snow Light Snow
8:01 AM 26.6 °F 14.3 °F 21.2 °F 80% 29.83 in 1.2 mi SE 16.1 mph - 0.00 in Snow Light Snow
8:53 AM 26.1 °F 14.0 °F 21.0 °F 81% 29.87 in 2.0 mi ESE 15.0 mph - 0.01 in Snow Light Snow
9:02 AM 26.6 °F 14.7 °F 21.2 °F 80% 29.83 in 1.5 mi SE 15.0 mph - 0.00 in Snow Light Snow
9:16 AM 26.6 °F 14.7 °F 21.2 °F 80% 29.83 in 3.0 mi SE 15.0 mph - 0.00 in Snow Light Snow
9:44 AM 26.6 °F 15.2 °F 21.2 °F 80% 29.82 in 2.0 mi SE 13.8 mph - 0.01 in Snow Light Snow
9:53 AM 26.1 °F 14.0 °F 21.0 °F 81% 29.87 in 2.5 mi SE 15.0 mph - 0.01 in Snow Light Snow
10:01 AM 26.6 °F 14.7 °F 21.2 °F 80% 29.83 in 4.0 mi SE 15.0 mph - 0.00 in Snow Light Snow
10:53 AM 27.0 °F 13.2 °F 21.0 °F 78% 29.88 in 5.0 mi SE 20.7 mph 26.5 mph 0.01 in   Haze
11:19 AM 26.6 °F 12.7 °F 21.2 °F 80% 29.84 in 2.5 mi SE 20.7 mph 27.6 mph 0.00 in Snow Light Snow
11:29 AM 26.6 °F 13.4 °F 21.2 °F 80% 29.84 in 1.5 mi SE 18.4 mph 25.3 mph 0.00 in Snow Light Snow
11:42 AM 26.6 °F 15.7 °F 21.2 °F 80% 29.84 in 0.5 mi SE 12.7 mph - 0.02 in Snow Snow
11:53 AM 27.0 °F 14.7 °F 21.9 °F 81% 29.88 in 1.0 mi SE 16.1 mph 23.0 mph 0.02 in Snow Light Snow
12:02 PM 26.6 °F 13.8 °F 21.2 °F 80% 29.84 in 0.8 mi SE 17.3 mph 27.6 mph 0.00 in Snow Light Snow
12:10 PM 26.6 °F 13.4 °F 21.2 °F 80% 29.84 in 0.5 mi SE 18.4 mph - 0.01 in Snow Snow
12:14 PM 26.6 °F 13.8 °F 21.2 °F 80% 29.84 in 0.2 mi SE 17.3 mph 24.2 mph 0.02 in Snow Heavy Snow
12:33 PM 26.6 °F 15.2 °F 21.2 °F 80% 29.85 in 0.2 mi SE 13.8 mph - 0.03 in Snow Heavy Snow
12:40 PM 26.6 °F 15.7 °F 21.2 °F 80% 29.84 in 0.5 mi SE 12.7 mph 24.2 mph 0.03 in Snow Snow
12:53 PM 27.0 °F 14.3 °F 21.9 °F 81% 29.89 in 0.8 mi SE 17.3 mph 28.8 mph 0.04 in Snow Light Snow
1:02 PM 26.6 °F 14.3 °F 21.2 °F 80% 29.85 in 1.5 mi SE 16.1 mph 24.2 mph 0.00 in Snow Light Snow
1:15 PM 26.6 °F 13.4 °F 21.2 °F 80% 29.85 in 2.0 mi SE 18.4 mph 26.5 mph 0.00 in Snow Light Snow
1:21 PM 26.6 °F 13.4 °F 21.2 °F 80% 29.84 in 3.0 mi SE 18.4 mph 26.5 mph 0.00 in Snow Light Snow
1:28 PM 26.6 °F 13.8 °F 21.2 °F 80% 29.84 in 2.5 mi SE 17.3 mph - 0.00 in Snow Light Snow
1:49 PM 26.6 °F 14.3 °F 21.2 °F 80% 29.84 in 3.0 mi SE 16.1 mph - 0.01 in Snow Light Snow
1:53 PM 27.0 °F 13.5 °F 21.9 °F 81% 29.88 in 3.0 mi SE 19.6 mph 23.0 mph 0.01 in Snow Light Snow
2:00 PM 26.6 °F 15.2 °F 21.2 °F 80% 29.84 in 2.0 mi SE 13.8 mph 23.0 mph 0.00 in Snow Light Snow
2:12 PM 26.6 °F 14.3 °F 21.2 °F 80% 29.84 in 2.0 mi SE 16.1 mph - 0.01 in Snow Light Snow
2:30 PM 26.6 °F 14.7 °F 21.2 °F 80% 29.84 in 3.0 mi SE 15.0 mph 23.0 mph 0.01 in Snow Light Snow
2:37 PM 26.6 °F 14.7 °F 21.2 °F 80% 29.84 in 2.5 mi ESE 15.0 mph - 0.01 in Snow Light Snow
2:46 PM 26.6 °F 14.3 °F 21.2 °F 80% 29.84 in 5.0 mi SE 16.1 mph - 0.01 in   Haze
2:53 PM 26.6 °F 13.1 °F 21.2 °F 80% 29.84 in 6.0 mi SE 19.6 mph 24.2 mph N/A   Haze
3:53 PM 27.0 °F 15.2 °F 21.0 °F 78% 29.90 in 6.0 mi SE 15.0 mph 25.3 mph N/A   Haze
4:53 PM 27.0 °F 14.3 °F 21.0 °F 78% 29.90 in 9.0 mi SE 17.3 mph - N/A   Overcast
5:53 PM 27.0 °F 16.1 °F 19.9 °F 75% 29.93 in 10.0 mi SE 12.7 mph - N/A   Overcast
6:53 PM 27.0 °F 16.1 °F 19.9 °F 75% 29.96 in 7.0 mi ESE 12.7 mph 21.9 mph N/A   Overcast
7:53 PM 25.0 °F 13.6 °F 19.9 °F 81% 29.97 in 6.0 mi ESE 12.7 mph - N/A   Haze
8:53 PM 25.0 °F 13.6 °F 19.9 °F 81% 30.00 in 8.0 mi ESE 12.7 mph - N/A   Overcast
9:53 PM 25.0 °F 14.2 °F 19.9 °F 81% 30.00 in 9.0 mi East 11.5 mph - N/A   Overcast
10:53 PM 25.0 °F 14.8 °F 19.9 °F 81% 30.02 in 7.0 mi East 10.4 mph - N/A   Overcast
11:42 PM 24.8 °F 16.1 °F 21.2 °F 86% 29.98 in 2.0 mi ENE 8.1 mph - 0.00 in Snow Light Snow
11:53 PM 25.0 °F 15.5 °F 21.0 °F 85% 30.02 in 1.5 mi ENE 9.2 mph - 0.01 in Snow Light Snow